Weather Roundup
Issued by NWS Springfield, MO

Home | Current Version | Previous Version | Text Only | Print | Product List | Glossary On
Versions: 1 2 3 4 5 6 7 8 9 10 11 12 13 14 15 16 17 18 19 20 21 22 23 24 25 26 27 28 29 30 31 32 33 34 35 36 37 38 39 40 41 42 43 44 45 46 47 48 49 50
000
NZUS99 KSGF 310507
HRRSGF

HOURLY WEATHER
NATIONAL WEATHER SERVICE SPRINGFIELD MO
1200 AM CDT MON AUG 31 2015

......SGF CWA......

CITY           SKY/WX    TMP DP  RH WIND       PRES   REMARKS
SPRINGFIELD    CLEAR     75  70  84 SE8       29.99F
JOPLIN         CLEAR     76  70  82 MISG      29.97S
WEST PLAINS    CLEAR     73  68  84 S3        30.05R
ROLLA          CLEAR     73  70  90 S7        30.01S
OSAGE BEACH    CLEAR     73  70  88 SE5       30.01S
BRANSON        MOCLDY    72  68  88 CALM      30.02S

......SURROUNDING SGF CWA......

CITY           SKY/WX    TMP DP  RH WIND       PRES   REMARKS
CHANUTE        CLEAR     71  69  93 CALM      29.96F
PARSONS        LGT RAIN  71  70  96 CALM      29.96S FOG
COFFEYVILLE    CLEAR     72  72 100 CALM      29.95S FOG
EMPORIA        CLEAR     67  66  97 SW3       29.97F
GROVE OK       CLEAR     72  72 100 CALM      29.96F FOG
ROGERS AR      CLEAR     73  70  90 SE6       30.00F
SILOAM SPRINGS CLEAR     73  64  73 S5        29.98S
NEAR YELLVILLE CLEAR     72  66  83 CALM      29.98F

......KANSAS AND MISSOURI......

CITY           SKY/WX    TMP DP  RH WIND       PRES   REMARKS
KANSAS CTY INT MOCLDY    75  70  84 SE7       29.97F
DOWNTOWN KC    CLEAR     78  71  79 SE7       29.96F
COLUMBIA       MOCLDY    74  72  93 SE3       30.00S
SEDALIA        CLEAR     75  71  87 SE3       30.00S
ST JOSEPH      PTCLDY    72  69  90 CALM      29.97S
ST LOUIS       MOCLDY    80  69  69 S9        30.02R
SPIRIT OF STL  CLEAR     73  71  93 CALM      30.00R
KIRKSVILLE     CLEAR     69  65  86 CALM      30.02R
WICHITA        CLEAR     73  68  84 SE8       29.95F
TOPEKA         FOG       68  67  96 CALM      29.96F VSB 3/4
OLATHE         PTCLDY    74  71  91 E5        29.97F

......TENNESSEE......

CITY           SKY/WX    TMP DP  RH WIND       PRES   REMARKS
MEMPHIS        PTCLDY    76  69  79 SE3       30.03S
NASHVILLE      MOCLDY    70  65  84 CALM      30.10S

......ARKANSAS.......

CITY           SKY/WX    TMP DP  RH WIND       PRES   REMARKS
FAYETTEVILLE   CLEAR     71  68  90 CALM      29.99F
FT SMITH       PTCLDY    74  69  85 E3        29.96F
LITTLE ROCK    PTCLDY    78  67  68 SE5       29.99S

......OKLAHOMA.......

CITY           SKY/WX    TMP DP  RH WIND       PRES   REMARKS
TULSA          CLEAR     73  70  90 SE5       29.93S
PONCA CITY     CLEAR     75  70  84 E6        29.94S HAZE
MCALESTER      CLOUDY    80  67  64 S6        29.95F
OKLAHOMA CITY  PTCLDY    75  67  76 CALM      29.94F

......IOWA............

CITY           SKY/WX    TMP DP  RH WIND       PRES   REMARKS
DES MOINES     PTCLDY    69  66  90 S6        29.99S
QUAD CITIES    CLEAR     63  61  93 CALM      30.02S FOG

......ILLINOIS........

CITY           SKY/WX    TMP DP  RH WIND       PRES   REMARKS
QUINCY         CLEAR     73  69  87 E6        30.01S
CHICAGO        CLEAR     64  63  96 SE3       30.04S FOG



USA.gov is the U.S. government's official web portal to all federal, state and local government web resources and services.